Tracking 23762 objects as of 22-Oct-2021
HD Live streaming from Space Station
objects crossing your sky now

DIDO 3

Track DIDO 3 now!
10-day predictions


NORAD ID: 46284
Int'l Code: 2020-061N
Perigee: 538.5 km
Apogee: 544.0 km
Inclination: 97.5 °
Period: 95.3 minutes
Semi major axis: 6912 km
RCS: Unknown
Launch date: September 3, 2020
Source: Israel (ISRA)
Launch site: FRENCH GUIANA (FRGUI)
aabbcc
Your satellite tracking list
Your tracking list is empty




NASA's NSSDC Master Catalog

Two Line Element Set (TLE):
1 46284U 20061N   21294.45360239  .00001352  00000-0  85455-4 0  9995
2 46284  97.4762   4.8298 0004001  25.7156 334.4272 15.10684761 62320
Source of the keplerian elements: AFSPC